This demonstration page uses our WeatherBlox Daily Observations layout. Learn more.

Left ArrowRight Arrow

38.83388, -104.82136

Hourly Observations for February 11, 2023

Temp ( °F °C ) Dew Point ( °F °C ) Humidity (%) Winds ( mph kmh ) Pressure ( in mb ) Visibility ( mi km ) Precip ( " mm )
12:55 am 00:55 Clear 32 -0.2 9 -12.8 38 38 Calm 29.97 1015 10 16 0.00 0.00
1:55 am 01:55 Clear 36 2.1 10 -12.1 34 34 WNW 6 9 29.92 1013 10 16 0.00 0.00
2:55 am 02:55 Clear 38 3.1 8 -13.2 29 29 Calm 29.90 1013 10 16 0.00 0.00
3:55 am 03:55 Clear 37 2.9 7 -13.8 28 28 SSW 3 6 29.89 1012 10 16 0.00 0.00
4:55 am 04:55 Clear 38 3.1 9 -12.8 30 30 Calm 29.91 1013 10 16 0.00 0.00
5:55 am 05:55 Clear 37 3 9 -12.9 30 30 Calm 29.90 1013 10 16 0.00 0.00
6:55 am 06:55 Sunny 37 3 7 -13.8 28 28 Calm 29.90 1013 10 16 0.00 0.00
7:55 am 07:55 Sunny 45 7.2 7 -13.7 21 21 Calm 29.86 1011 10 16 0.00 0.00
8:55 am 08:55 Sunny 44 6.7 10 -12.5 24 24 Calm 29.87 1012 10 16 0.00 0.00
9:55 am 09:55 Sunny 45 7.4 13 -10.4 27 27 Calm 29.84 1011 10 16 0.00 0.00
11:55 am 11:55 Sunny 50 10 17 -8.6 26 26 SE 6 9 29.78 1009 10 16 0.00 0.00
1:55 pm 13:55 Sunny 50 10 18 -7.7 28 28 SSE 9 15 29.71 1006 10 16 0.00 0.00
2:55 pm 14:55 Mostly Sunny 50 9.8 15 -9.3 25 25 SSE 12 19 29.67 1005 10 16 0.00 0.00
3:55 pm 15:55 Sunny 47 8.4 17 -8.6 29 29 SSE 9 15 29.69 1006 10 16 0.00 0.00
4:55 pm 16:55 Mostly Cloudy 44 6.4 19 -7.2 37 37 Calm 29.71 1006 10 16 0.00 0.00
5:55 pm 17:55 Cloudy 44 6.4 17 -8.3 34 34 Calm 29.73 1007 10 16 0.00 0.00
6:55 pm 18:55 Cloudy 43 5.9 15 -9.6 32 32 Calm 29.73 1007 10 16 0.00 0.00
7:55 pm 19:55 Cloudy 50 10 -1 -18.2 12 12 W 10 17 29.62 1003 10 16 0.00 0.00
8:55 pm 20:55 Mostly Cloudy 49 9.2 -6 -20.9 10 10 SE 13 20 29.62 1003 10 16 0.00 0.00
9:55 pm 21:55 Mostly Cloudy 42 5.4 4 -15.8 20 20 WNW 5 7 29.66 1004 10 16 0.00 0.00
10:55 pm 22:55 Cloudy 46 7.6 1 -17.4 15 15 NE 5 7 29.60 1003 10 16 0.00 0.00
11:55 pm 23:55 Cloudy 46 7.6 2 -16.7 16 16 WSW 3 6 29.58 1002 10 16 0.00 0.00

Powered by AerisWeather